Time,TemperatureF,DewpointF,PressureIn,WindDirection,WindDirectionDegrees,WindSpeedMPH,WindSpeedGustMPH,Humidity,HourlyPrecipIn,Conditions,Clouds,dailyrainin,SolarRadiationWatts/m^2,SoftwareType,DateUTC
2013-07-11 00:02:00,46.0,39.0,-100.00,NW,311,2.0,3.0,77,0.00,,,-99.99,9.000000,,2013-07-11 08:02:00,
2013-07-11 00:11:00,46.0,39.0,-100.00,NW,311,2.0,3.0,77,0.00,,,-99.99,9.000000,,2013-07-11 08:11:00,
2013-07-11 00:22:00,46.0,39.0,-100.00,NW,311,2.0,3.0,77,0.00,,,-99.99,9.000000,,2013-07-11 08:22:00,
2013-07-11 00:33:00,45.0,35.0,-100.00,WNW,302,1.0,3.0,69,0.00,,,0.00,1.000000,,2013-07-11 08:33:00,
2013-07-11 01:02:00,45.0,35.0,-100.00,WNW,302,1.0,3.0,69,0.00,,,0.00,1.000000,,2013-07-11 09:02:00,
2013-07-11 01:12:00,45.0,35.0,-100.00,WNW,302,1.0,3.0,69,0.00,,,0.00,1.000000,,2013-07-11 09:12:00,
2013-07-11 01:21:00,45.0,35.0,-100.00,WNW,302,1.0,3.0,69,0.00,,,0.00,1.000000,,2013-07-11 09:21:00,
2013-07-11 01:33:00,45.0,37.0,-100.00,NW,318,3.0,4.0,74,0.00,,,0.00,0.000000,,2013-07-11 09:33:00,
2013-07-11 01:53:00,45.0,37.0,-100.00,NW,318,3.0,4.0,74,0.00,,,0.00,0.000000,,2013-07-11 09:53:00,
2013-07-11 02:01:00,45.0,37.0,-100.00,NW,318,3.0,4.0,74,0.00,,,0.00,0.000000,,2013-07-11 10:01:00,
2013-07-11 02:11:00,45.0,37.0,-100.00,NW,318,3.0,4.0,74,0.00,,,0.00,0.000000,,2013-07-11 10:11:00,
2013-07-11 02:21:00,45.0,37.0,-100.00,NW,318,3.0,4.0,74,0.00,,,0.00,0.000000,,2013-07-11 10:21:00,
2013-07-11 03:02:00,44.0,38.0,-100.00,WNW,298,1.0,3.0,79,0.00,,,0.00,0.000000,,2013-07-11 11:02:00,
2013-07-11 03:12:00,44.0,38.0,-100.00,WNW,298,1.0,3.0,79,0.00,,,0.00,0.000000,,2013-07-11 11:12:00,
2013-07-11 03:22:00,44.0,38.0,-100.00,WNW,298,1.0,3.0,79,0.00,,,0.00,0.000000,,2013-07-11 11:22:00,
2013-07-11 03:32:00,44.0,38.0,-100.00,WNW,298,1.0,3.0,79,0.00,,,0.00,0.000000,,2013-07-11 11:32:00,
2013-07-11 03:33:00,43.0,38.0,-100.00,WNW,297,2.0,4.0,82,0.00,,,-99.99,0.000000,,2013-07-11 11:33:00,
2013-07-11 03:53:00,43.0,38.0,-100.00,WNW,297,2.0,4.0,82,0.00,,,-99.99,0.000000,,2013-07-11 11:53:00,
2013-07-11 04:01:00,43.0,38.0,-100.00,WNW,297,2.0,4.0,82,0.00,,,-99.99,0.000000,,2013-07-11 12:01:00,
2013-07-11 04:12:00,43.0,38.0,-100.00,WNW,297,2.0,4.0,82,0.00,,,-99.99,0.000000,,2013-07-11 12:12:00,
2013-07-11 04:22:00,43.0,38.0,-100.00,WNW,297,2.0,4.0,82,0.00,,,-99.99,0.000000,,2013-07-11 12:22:00,
2013-07-11 04:33:00,42.0,37.0,-100.00,NW,315,3.0,4.0,83,0.00,,,-99.99,0.000000,,2013-07-11 12:33:00,
2013-07-11 04:57:00,42.0,37.0,-100.00,NW,315,3.0,4.0,83,0.00,,,-99.99,0.000000,,2013-07-11 12:57:00,
2013-07-11 05:12:00,42.0,37.0,-100.00,NW,315,3.0,4.0,83,0.00,,,-99.99,0.000000,,2013-07-11 13:12:00,
2013-07-11 05:22:00,42.0,37.0,-100.00,NW,315,3.0,4.0,83,0.00,,,-99.99,0.000000,,2013-07-11 13:22:00,
2013-07-11 05:33:00,43.0,37.0,-100.00,North,354,3.0,5.0,79,0.00,,,0.00,7.000000,,2013-07-11 13:33:00,
2013-07-11 06:04:00,43.0,37.0,-100.00,North,354,3.0,5.0,79,0.00,,,0.00,7.000000,,2013-07-11 14:04:00,
2013-07-11 06:13:00,43.0,37.0,-100.00,North,354,3.0,5.0,79,0.00,,,0.00,7.000000,,2013-07-11 14:13:00,
2013-07-11 06:22:00,43.0,37.0,-100.00,North,354,3.0,5.0,79,0.00,,,0.00,7.000000,,2013-07-11 14:22:00,
2013-07-11 06:33:00,42.0,40.0,-100.00,NNW,337,3.0,5.0,91,0.00,,,0.00,32.000000,,2013-07-11 14:33:00,
2013-07-11 07:04:00,42.0,40.0,-100.00,NNW,337,3.0,5.0,91,0.00,,,0.00,32.000000,,2013-07-11 15:04:00,
2013-07-11 07:12:00,42.0,40.0,-100.00,NNW,337,3.0,5.0,91,0.00,,,0.00,32.000000,,2013-07-11 15:12:00,
2013-07-11 07:23:00,42.0,40.0,-100.00,NNW,337,3.0,5.0,91,0.00,,,0.00,32.000000,,2013-07-11 15:23:00,
2013-07-11 07:33:00,42.0,38.0,-100.00,NNW,340,2.0,3.0,86,0.00,,,0.00,108.000000,,2013-07-11 15:33:00,
2013-07-11 07:57:00,42.0,38.0,-100.00,NNW,340,2.0,3.0,86,0.00,,,0.00,108.000000,,2013-07-11 15:57:00,
2013-07-11 08:04:00,42.0,38.0,-100.00,NNW,340,2.0,3.0,86,0.00,,,0.00,108.000000,,2013-07-11 16:04:00,
2013-07-11 08:13:00,42.0,38.0,-100.00,NNW,340,2.0,3.0,86,0.00,,,0.00,108.000000,,2013-07-11 16:13:00,
2013-07-11 08:22:00,42.0,38.0,-100.00,NNW,340,2.0,3.0,86,0.00,,,0.00,108.000000,,2013-07-11 16:22:00,
2013-07-11 08:33:00,44.0,40.0,-100.00,East,93,2.0,4.0,87,0.00,,,0.00,276.000000,,2013-07-11 16:33:00,
2013-07-11 08:56:00,44.0,40.0,-100.00,East,93,2.0,4.0,87,0.00,,,0.00,276.000000,,2013-07-11 16:56:00,
2013-07-11 09:02:00,44.0,40.0,-100.00,East,93,2.0,4.0,87,0.00,,,0.00,276.000000,,2013-07-11 17:02:00,
2013-07-11 09:13:00,44.0,40.0,-100.00,East,93,2.0,4.0,87,0.00,,,0.00,276.000000,,2013-07-11 17:13:00,
2013-07-11 09:23:00,44.0,40.0,-100.00,East,93,2.0,4.0,87,0.00,,,0.00,276.000000,,2013-07-11 17:23:00,
2013-07-11 09:33:00,45.0,35.0,-100.00,South,176,1.0,3.0,67,0.00,,,0.00,413.000000,,2013-07-11 17:33:00,
2013-07-11 10:03:00,45.0,35.0,-100.00,South,176,1.0,3.0,67,0.00,,,0.00,413.000000,,2013-07-11 18:03:00,
2013-07-11 10:13:00,45.0,35.0,-100.00,South,176,1.0,3.0,67,0.00,,,0.00,413.000000,,2013-07-11 18:13:00,
2013-07-11 10:22:00,45.0,35.0,-100.00,South,176,1.0,3.0,67,0.00,,,0.00,413.000000,,2013-07-11 18:22:00,
2013-07-11 10:33:00,47.0,39.0,-100.00,SE,135,2.0,4.0,74,0.00,,,0.00,571.000000,,2013-07-11 18:33:00,
2013-07-11 10:56:00,47.0,39.0,-100.00,SE,135,2.0,4.0,74,0.00,,,0.00,571.000000,,2013-07-11 18:56:00,
2013-07-11 11:03:00,47.0,39.0,-100.00,SE,135,2.0,4.0,74,0.00,,,0.00,571.000000,,2013-07-11 19:03:00,
2013-07-11 11:12:00,47.0,39.0,-100.00,SE,135,2.0,4.0,74,0.00,,,0.00,571.000000,,2013-07-11 19:12:00,
2013-07-11 11:22:00,47.0,39.0,-100.00,SE,135,2.0,4.0,74,0.00,,,0.00,571.000000,,2013-07-11 19:22:00,
2013-07-11 12:03:00,49.0,40.0,-100.00,SSE,158,2.0,4.0,71,0.00,,,0.00,686.000000,,2013-07-11 20:03:00,
2013-07-11 12:12:00,49.0,40.0,-100.00,SSE,158,2.0,4.0,71,0.00,,,0.00,686.000000,,2013-07-11 20:12:00,
2013-07-11 12:33:00,51.0,37.0,-100.00,ESE,117,2.0,3.0,58,0.00,,,0.00,777.000000,,2013-07-11 20:33:00,
2013-07-11 13:03:00,51.0,37.0,-100.00,ESE,117,2.0,3.0,58,0.00,,,0.00,777.000000,,2013-07-11 21:03:00,
2013-07-11 13:13:00,51.0,37.0,-100.00,ESE,117,2.0,3.0,58,0.00,,,0.00,777.000000,,2013-07-11 21:13:00,
2013-07-11 13:22:00,51.0,37.0,-100.00,ESE,117,2.0,3.0,58,0.00,,,0.00,777.000000,,2013-07-11 21:22:00,
2013-07-11 14:04:00,52.0,37.0,-100.00,ESE,110,2.0,3.0,57,0.00,,,0.00,840.000000,,2013-07-11 22:04:00,
2013-07-11 14:13:00,52.0,37.0,-100.00,ESE,110,2.0,3.0,57,0.00,,,0.00,840.000000,,2013-07-11 22:13:00,
2013-07-11 14:22:00,52.0,37.0,-100.00,ESE,110,2.0,3.0,57,0.00,,,0.00,840.000000,,2013-07-11 22:22:00,
2013-07-11 14:31:00,52.0,37.0,-100.00,ESE,110,2.0,3.0,57,0.00,,,0.00,840.000000,,2013-07-11 22:31:00,
2013-07-11 14:33:00,53.0,38.0,-100.00,SSE,156,2.0,5.0,56,0.00,,,0.00,896.000000,,2013-07-11 22:33:00,
2013-07-11 15:03:00,53.0,38.0,-100.00,SSE,156,2.0,5.0,56,0.00,,,0.00,896.000000,,2013-07-11 23:03:00,
2013-07-11 15:12:00,53.0,38.0,-100.00,SSE,156,2.0,5.0,56,0.00,,,0.00,896.000000,,2013-07-11 23:12:00,
2013-07-11 15:23:00,53.0,38.0,-100.00,SSE,156,2.0,5.0,56,0.00,,,0.00,896.000000,,2013-07-11 23:23:00,
2013-07-11 15:33:00,54.0,36.0,-100.00,SE,146,2.0,4.0,51,0.00,,,0.00,638.000000,,2013-07-11 23:33:00,
2013-07-11 15:58:00,54.0,36.0,-100.00,SE,146,2.0,4.0,51,0.00,,,0.00,638.000000,,2013-07-11 23:58:00,
2013-07-11 16:03:00,54.0,36.0,-100.00,SE,146,2.0,4.0,51,0.00,,,0.00,638.000000,,2013-07-12 00:03:00,
2013-07-11 16:12:00,54.0,36.0,-100.00,SE,146,2.0,4.0,51,0.00,,,0.00,638.000000,,2013-07-12 00:12:00,
2013-07-11 16:23:00,54.0,36.0,-100.00,SE,146,2.0,4.0,51,0.00,,,0.00,638.000000,,2013-07-12 00:23:00,
2013-07-11 16:58:00,56.0,36.0,-100.00,SSE,168,2.0,6.0,47,0.00,,,0.00,789.000000,,2013-07-12 00:58:00,
2013-07-11 17:12:00,56.0,36.0,-100.00,SSE,168,2.0,6.0,47,0.00,,,0.00,789.000000,,2013-07-12 01:12:00,
2013-07-11 17:32:00,56.0,36.0,-100.00,SSE,168,2.0,6.0,47,0.00,,,0.00,789.000000,,2013-07-12 01:32:00,
2013-07-11 17:33:00,57.0,35.0,-100.00,West,266,4.0,9.0,44,0.00,,,0.00,686.000000,,2013-07-12 01:33:00,
2013-07-11 17:56:00,57.0,35.0,-100.00,West,266,4.0,9.0,44,0.00,,,0.00,686.000000,,2013-07-12 01:56:00,
2013-07-11 18:03:00,57.0,35.0,-100.00,West,266,4.0,9.0,44,0.00,,,0.00,686.000000,,2013-07-12 02:03:00,
2013-07-11 18:14:00,57.0,35.0,-100.00,West,266,4.0,9.0,44,0.00,,,0.00,686.000000,,2013-07-12 02:14:00,
2013-07-11 18:23:00,57.0,35.0,-100.00,West,266,4.0,9.0,44,0.00,,,0.00,686.000000,,2013-07-12 02:23:00,
2013-07-11 18:33:00,57.0,35.0,-100.00,West,280,5.0,9.0,44,0.00,,,0.00,564.000000,,2013-07-12 02:33:00,
2013-07-11 18:55:00,57.0,35.0,-100.00,West,280,5.0,9.0,44,0.00,,,0.00,564.000000,,2013-07-12 02:55:00,
2013-07-11 19:02:00,57.0,35.0,-100.00,West,280,5.0,9.0,44,0.00,,,0.00,564.000000,,2013-07-12 03:02:00,
2013-07-11 19:13:00,57.0,35.0,-100.00,West,280,5.0,9.0,44,0.00,,,0.00,564.000000,,2013-07-12 03:13:00,
2013-07-11 19:23:00,57.0,35.0,-100.00,West,280,5.0,9.0,44,0.00,,,0.00,564.000000,,2013-07-12 03:23:00,
2013-07-11 19:56:00,56.0,32.0,-100.00,WNW,285,5.0,8.0,40,0.00,,,0.00,431.000000,,2013-07-12 03:56:00,
2013-07-11 20:01:00,56.0,32.0,-100.00,WNW,285,5.0,8.0,40,0.00,,,0.00,431.000000,,2013-07-12 04:01:00,
2013-07-11 20:11:00,56.0,32.0,-100.00,WNW,285,5.0,8.0,40,0.00,,,0.00,431.000000,,2013-07-12 04:11:00,
2013-07-11 20:21:00,56.0,32.0,-100.00,WNW,285,5.0,8.0,40,0.00,,,0.00,431.000000,,2013-07-12 04:21:00,
2013-07-11 20:32:00,56.0,32.0,-100.00,WNW,285,5.0,8.0,40,0.00,,,0.00,431.000000,,2013-07-12 04:32:00,
2013-07-11 20:53:00,56.0,33.0,-100.00,WNW,285,7.0,9.0,42,0.00,,,0.00,291.000000,,2013-07-12 04:53:00,
2013-07-11 21:02:00,56.0,33.0,-100.00,WNW,285,7.0,9.0,42,0.00,,,0.00,291.000000,,2013-07-12 05:02:00,
2013-07-11 21:11:00,56.0,33.0,-100.00,WNW,285,7.0,9.0,42,0.00,,,0.00,291.000000,,2013-07-12 05:11:00,
2013-07-11 21:22:00,56.0,33.0,-100.00,WNW,285,7.0,9.0,42,0.00,,,0.00,291.000000,,2013-07-12 05:22:00,
2013-07-11 21:32:00,56.0,33.0,-100.00,WNW,285,7.0,9.0,42,0.00,,,0.00,291.000000,,2013-07-12 05:32:00,
2013-07-11 21:53:00,55.0,32.0,-100.00,NW,308,4.0,7.0,41,0.00,,,0.00,167.000000,,2013-07-12 05:53:00,
2013-07-11 22:01:00,55.0,32.0,-100.00,NW,308,4.0,7.0,41,0.00,,,0.00,167.000000,,2013-07-12 06:01:00,
2013-07-11 22:11:00,55.0,32.0,-100.00,NW,308,4.0,7.0,41,0.00,,,0.00,167.000000,,2013-07-12 06:11:00,
2013-07-11 22:22:00,55.0,32.0,-100.00,NW,308,4.0,7.0,41,0.00,,,0.00,167.000000,,2013-07-12 06:22:00,
2013-07-11 22:32:00,55.0,32.0,-100.00,NW,308,4.0,7.0,41,0.00,,,0.00,167.000000,,2013-07-12 06:32:00,
2013-07-11 22:52:00,53.0,32.0,-100.00,WSW,242,0.0,2.0,44,0.00,,,0.00,24.000000,,2013-07-12 06:52:00,
2013-07-11 23:02:00,53.0,32.0,-100.00,WSW,242,0.0,2.0,44,0.00,,,0.00,24.000000,,2013-07-12 07:02:00,
2013-07-11 23:12:00,53.0,32.0,-100.00,WSW,242,0.0,2.0,44,0.00,,,0.00,24.000000,,2013-07-12 07:12:00,
2013-07-11 23:22:00,53.0,32.0,-100.00,WSW,242,0.0,2.0,44,0.00,,,0.00,24.000000,,2013-07-12 07:22:00,
2013-07-11 23:32:00,53.0,32.0,-100.00,WSW,242,0.0,2.0,44,0.00,,,0.00,24.000000,,2013-07-12 07:32:00,